This is the latest recevied weather packets stored in our database for station/object IW2HNF-3. If no packets are shown the sender has not sent any weather packets the latest 10 day(s).
| Time | Temp. | Humidity | Pressure | Rain* | Wind** | Luminosity | Snow |
|---|---|---|---|---|---|---|---|
| 1788628246 | 30° C | 53% | 1015.6 hPa | 0 mm | - | - | - |
| 1788627047 | 30.56° C | 53% | 1015.5 hPa | 0 mm | - | - | - |
| 1788625847 | 30.56° C | 51% | 1015.5 hPa | 0 mm | - | - | - |
| 1788625270 | 31.11° C | 51% | 1015.5 hPa | 0 mm | - | - | - |
| 1788624647 | 31.11° C | 50% | 1015.6 hPa | 0 mm | - | - | - |
| 1788623447 | 31.67° C | 50% | 1015.5 hPa | 0 mm | - | - | - |
| 1788621670 | 32.22° C | 45% | 1015.5 hPa | 0 mm | - | - | - |
| 1788620471 | 32.22° C | 45% | 1015.5 hPa | 0 mm | - | - | - |
| 1788619270 | 32.22° C | 45% | 1015.4 hPa | 0 mm | - | - | - |
| 1788618648 | 32.22° C | 45% | 1015.5 hPa | 0 mm | - | - | - |
| 1788618072 | 32.78° C | 42% | 1015.5 hPa | 0 mm | - | - | - |
| 1788617446 | 32.78° C | 43% | 1015.6 hPa | 0 mm | - | - | - |
| 1788616871 | 32.78° C | 42% | 1015.6 hPa | 0 mm | - | - | - |
| 1788616247 | 32.22° C | 44% | 1015.7 hPa | 0 mm | - | - | - |
| 1788615672 | 32.22° C | 42% | 1015.8 hPa | 0 mm | - | - | - |
| 1788615047 | 32.22° C | 42% | 1015.9 hPa | 0 mm | - | - | - |
| 1788614471 | 32.22° C | 42% | 1016 hPa | 0 mm | - | - | - |
| 1788613847 | 32.22° C | 42% | 1016.1 hPa | 0 mm | - | - | - |
| 1788613271 | 32.22° C | 44% | 1016.1 hPa | 0 mm | - | - | - |
| 1788612647 | 31.67° C | 43% | 1016.2 hPa | 0 mm | - | - | - |
| 1788612071 | 31.11° C | 45% | 1016.2 hPa | 0 mm | - | - | - |
| 1788611447 | 31.11° C | 46% | 1016.2 hPa | 0 mm | - | - | - |
| 1788610870 | 31.11° C | 47% | 1016.3 hPa | 0 mm | - | - | - |
| 1788610247 | 31.11° C | 47% | 1016.4 hPa | 0 mm | - | - | - |
| 1788609671 | 31.11° C | 48% | 1016.5 hPa | 0 mm | - | - | - |
* Rain latest hour (hover to see other rain measurements)
** Current wind speed in m/s (hover to see current wind gust speed)